Location: Anjeux
(47.8815°N, 6.2076°E)
Time: 10:59:41
(UTC+00:00)

AO-27 - Pass Details

Date: 17 December 2021
Orbit: 784 x 798 km, 98.9° (Epoch: 23 January)

Event Time Altitude Azimuth Distance (km) Brightness Sun altitude
Rises 16:31:56 0° 119° (ESE) 3,297 10.5 -7.8°
Reaches altitude 10° 16:34:48 10° 103° (ESE) 2,372 9.7 -8.3°
Maximum altitude 16:38:31 20° 58° (ENE) 1,769 8.9 -8.8°
Drops below altitude 10° 16:42:16 10° 12° (NNE) 2,381 9.8 -9.4°
Sets 16:45:09 0° 356° (N) 3,314 10.7 -9.8°
